www.pogodaiklimat.ru

Погода и климат >> Архив погоды >> Россия >> Ставропольский край >> Дивное


ПОГОДА в Дивном

  • Прогноз погоды в Дивном
  • Монитор погоды в Дивном

АРХИВ ПОГОДЫ в Дивном

Время (UTC), дата Ветер
(напр.,м/с)
 
Видим.   Явления Облачность Т
(С)
Тd
(С)
f
(%)
Тe
(С)
Тes
(С)
Комфортность P
(гПа)
Po
(гПа)
Тmin
(С)
Tmax
(С)
R
(мм)
R24
(мм)
S
(см)
06 13.09 В 2 10 км ясно +20.5 +12.2 59 +23 +29 комфорт 1025.4 1015.1
09 13.09 В 3 10 км 4/4 1000 м
[Cu hum]
+25.6 +4.6 26 +25 +31 комфорт 1024.0 1013.9
12 13.09 В 3 10 км 5/4 1000 м
[Cb calv Ci sp]
+27.0 +4.3 23 +26 +29 жарко 1022.2 1012.2
15 13.09 В 2 10 км 3/3 1000 м
[Cu hum]
+23.9 +3.8 27 +23 +23 комфорт 1022.0 1011.9 +27.2
18 13.09 ЮВ 2 10 км ясно +19.3 +4.8 38 +20 +20 1023.0 1012.7
21 13.09 ЮВ 2 10 км ясно +16.3 +6.0 50 +16 +16 1022.7 1012.3
00 14.09 штиль 0 10 км ясно +12.2 +6.4 68 +12 +12 1022.4 1011.8
03 14.09 В 1 4000 м дымка 3/0
[Ci fib]
+10.0 +6.1 77 +10 +10 1022.7 1012.1 +9.2
06 14.09 ЮВ 2 10 км ясно +20.2 +10.0 52 +22 +28 комфорт 1022.6 1012.3
09 14.09 В 4 10 км ясно +25.3 +4.1 25 +24 +32 комфорт 1020.9 1010.8
12 14.09 ЮВ 3 10 км ясно +26.7 +2.6 21 +25 +30 комфорт 1019.0 1009.0
15 14.09 В 2 10 км ясно +23.8 +2.4 25 +23 +23 комфорт 1018.1 1008.0 +26.8
18 14.09 В 2 10 км ясно +20.1 +2.2 30 +21 +21 комфорт 1018.3 1008.1
21 14.09 ЮВ 3 10 км ясно +17.2 +6.3 49 +17 +17 1018.4 1008.1
00 15.09 Ю 2 10 км ясно +16.3 +8.4 59 +16 +16 1017.7 1007.3
03 15.09 Ю 2 10 км 4/0
[Ci fib]
+14.6 +8.3 66 +14 +14 1017.7 1007.3 +13.8
06 15.09 Ю 2 10 км 8/0
[Ac trans Ci sp]
+22.0 +8.4 42 +23 +27 комфорт 1017.5 1007.4
09 15.09 ЮЗ 2 10 км 8/0
[Ac trans Ci sp]
+25.7 +5.9 28 +25 +32 комфорт 1017.2 1007.2
12 15.09 СЗ 2 10 км 6/6 1000 м
[Cu med, cong]
+27.5 +5.1 24 +26 +29 жарко 1016.3 1006.3
15 15.09 СЗ 5-10
{10}
10 км ясно +24.0 +7.3 34 +24 +24 комфорт 1017.4 1007.3 +27.9
18 15.09 С 3
{10}
10 км ясно +17.9 +7.1 49 +18 +18 1020.1 1009.8
21 15.09 штиль 0 10 км ясно +13.0 +6.1 63 +13 +13 1020.5 1010.0
00 16.09 Ю 1 10 км ясно +11.8 +5.1 63 +12 +12 1020.5 1009.9
03 16.09 Ю 1 4000 м дымка ясно +9.3 +5.3 76 +9 +9 1020.3 1009.7 +8.8
06 16.09 ЮВ 3 10 км ясно +19.6 +3.9 35 +20 +25 1019.0 1008.8
09 16.09 ЮВ 2 10 км ясно +24.6 +2.4 23 +24 +35 комфорт 1016.5 1006.4
12 16.09 Ю 2 10 км ясно +27.5 +3.7 22 +26 +32 жарко 1013.1 1003.2
15 16.09 штиль 0 10 км ясно +24.5 +5.6 30 +24 +24 комфорт 1011.9 1001.9 +28.1
18 16.09 ЮЗ 1 10 км ясно +17.7 +6.5 48 +19 +19 1012.2 1002.0
21 16.09 ЮЗ 2 10 км ясно +17.3 +5.5 46 +18 +18 1011.8 1001.5
00 17.09 СЗ 2 10 км 10/0
[Ac As]
+18.2 +3.7 38 +19 +19 1012.0 1001.8
03 17.09 ЮЗ 2 10 км 4/0
[Ac trans]
+14.8 +3.4 46 +15 +15 1012.3 1002.0 +14.1
06 17.09 З 3 10 км 6/0
[Ac trans]
+20.1 +2.0 30 +21 +23 комфорт 1012.2 1002.0
09 17.09 ЮЗ 3 10 км 4/0
[Ci sp]
+24.4 +2.1 23 +23 +32 комфорт 1010.5 1000.5
12 17.09 З 4
{10}
10 км 8/0
[Ac trans Ci fib]
+26.7 +4.5 24 +26 +28 жарко 1009.1 999.2
15 17.09 ЮЗ 2 10 км 3/0
[Ci fib]
+24.4 +4.0 27 +24 +24 комфорт 1008.6 998.6 +27.5
18 17.09 ЮЗ 3 10 км 6/0
[Ac trans Ci sp]
+19.2 +10.6 57 +20 +20 1009.8 999.6
21 17.09 З 3 10 км 10/0
[Ac As]
+19.9 +5.8 40 +21 +21 комфорт 1010.4 1000.3
00 18.09 ЮЗ 2 10 км 9/0
[Ac As]
+18.6 +9.4 55 +20 +20 1011.0 1000.8
03 18.09 ЮЗ 3 10 км 9/0
[Ac As]
+19.1 +10.8 59 +20 +20 1011.4 1001.2 +17.8
06 18.09 ЮЗ 4 10 км 9/3 1000 м
[Cb calv Ac As]
+21.1 +9.4 47 +22 +23 комфорт 1011.9 1001.8
09 18.09 З 5-11
{15}
10 км 8/3 1000 м
[Cb calv Ac trans Ci sp]
+24.4 +10.3 41 +25 +28 комфорт 1011.3 1001.3
12 18.09 ЮЗ 4
{13}
10 км 4/3 1000 м
[Cu med, cong Ac trans]
+28.5 +8.8 29 +28 +31 жарко 1008.9 999.1
15 18.09 ЮЗ 3
{13}
10 км 4/0
[Ac trans]
+27.5 +5.5 25 +27 +27 жарко 1008.1 998.2 +29.0
18 18.09 ЮЗ 2
{11}
10 км 4/0
[Ac trans]
+23.5 +5.4 31 +23 +23 комфорт 1009.4 999.3
21 18.09 З 3
{15}
10 км 10/3 600 м
[Cb calv Ac As]
+17.8 +7.2 50 +18 +18 1012.9 1002.6
00 19.09 З 3 10 км 6/0
[Ac trans]
+16.1 +5.5 49 +16 +16 1015.1 1004.7
03 19.09 З 2 10 км 10/3 600 м
[Cb calv Ac As]
+13.6 +6.6 63 +13 +13 1017.8 1007.4 +13.6
06 19.09 З 3 10 км {ливн. осадки} 8/3 1000 м
[Cb calv Ac As]
+14.3 +2.6 45 +14 +15 1019.4 1009.0 +13.1
09 19.09 З 4 10 км 3/0
[Ac trans]
+19.9 +1.9 30 +20 +26 1019.3 1009.0
12 19.09 З 2
{10}
10 км 3/0
[Ci sp]
+21.5 -0.3 23 +21 +26 комфорт 1018.8 1008.6
15 19.09 С 1 10 км 8/0
[Ac trans]
+18.0 +1.0 32 +19 +19 1019.6 1009.3 +21.7 0.0
18 19.09 штиль 0 10 км 10/0
[Ac As]
+15.0 +3.7 47 +15 +15 1020.6 1010.1
21 19.09 С 2 10 км {ливн. осадки} 10/3 600 м
[Cb calv Ac As]
+14.8 +5.3 53 +15 +15 1019.4 1009.0
00 20.09 В 1 4000 м слаб. ливневой дождь 10/5 600 м
[Cb cap Ac As]
+13.0 +10.3 84 +13 +13 1020.1 1009.6
03 20.09 Ю 2 4000 м дымка {ливн. осадки} 10/4 600 м
[Cb calv Ac As]
+11.7 +9.2 85 +11 +11 1019.6 1009.1 +11.4 0.8

 

Местоположение метеостанции Дивное (Ставропольский край, Россия): широта 45.92 долгота 43.35 высота над уровнем моря 86 м.

В архиве по умолчанию представлена погода в Дивном за последнюю неделю. Архивные данные за месяц целиком и за предыдущие месяцы, начиная с января 2011 года, Вы можете получить, выбрав интересующий диапазон дат из раскрывающегося списка и нажав кнопку "Ввод!".


*Определитесь, кто Вы:
робот инопланетянин человек

Внимание! Время в таблицах - всемирное. Для получения местного времени необходимо прибавить поправку, которая равна 3 ч.

Смотрите также архив погоды в соседних городах и на ближайших метеорологических станциях:

Погода в Светлограде (Ставропольский край, Россия) (74 км)
Погода в Ремонтном (Ростовская область, Россия) (76 км)
Погода в Арзгире (Ставропольский край, Россия) (88 км)
Погода в Элисте (Калмыкия, Россия) (91 км)
Погода в Благодарном (Ставропольский край, Россия) (92 км)
Погода в Ики-Буруле (Калмыкия, Россия) (100 км)
Погода в Городовиковске (Калмыкия, Россия) (108 км)
Погода в Ставрополе (Ставропольский край, Россия) (133 км)
Погода в Александровском (Ставропольский край, Россия) (136 км)
Погода в Буденновске (Ставропольский край, Россия) (141 км)

Пояснения к столбцам:

Ветер - указаны скорость ветра в м/с - средняя за 10 мин, порывы в срок и между сроками (в фигурных скобках) и направление, откуда дует ветер: С - северный, СВ - северо-восточный, В - восточный, ЮВ - юго-восточный, Ю - южный, ЮЗ - юго-западный, З - западный, СЗ - северо-западный.
Видимость - горизонтальная дальность видимости в метрах или километрах. При видимости от 1 до 10 км при отсутствии осадков обычно наблюдается дымка, при ухудшении видимости до 1 км и менее - туман. В сухую погоду видимость может ухудшаться дымом, пылью или мглою.
Явления - указаны атмосферные явления, наблюдавшиеся в срок или в последний час перед сроком; фигурными скобками обозначены явления, наблюдавшиеся между сроками (за 1-3 часа до срока); квадратными скобками обозначены град или гололедные отложения с указанием их диаметра в мм.
Облачность - указаны через наклонную черту общая и нижняя облачность в баллах и высота нижней границы облаков в метрах; квадратными скобками обозначены формы облаков: Ci - перистые, Cs - перисто-слоистые, Cc - перисто-кучевые, Ac - высококучевые, As - высокослоистые, Sc - слоисто-кучевые, Ns - слоисто-дождевые, Cu - кучевые, Cb - кучево-дождевые. Подробнее классификацию облаков см. в Атласе облаков (PDF).
T - Температура воздуха - температура, измеренная на высоте 2 м над землей.
Td - Температура точки росы - температура, при понижении до которой содержащийся в воздухе водяной пар достигнет насыщения.
f - Относительная влажность воздуха - влажноcть воздуха, измеренная на высоте 2 м над землей.
Te - Эффективная температура - температура, которую ощущает одетый по сезону человек в тени. Характеристика душности погоды. При расчете учитывается влияние влажности воздуха и скорости ветра на теплоощущения человека.
Tes - Эффективная температура на солнце - температура, которую ощущает человек, с поправкой на солнечный нагрев. Характеристика знойности погоды. Зависит от высоты солнца над горизонтом, облачности и скорости ветра. Ночью, в пасмурную погоду, а также при ветре 12 м/с и более поправка равна нулю.
P - Атмосферное давление - приведенное к уровню моря атмосферное давление.
Po - Атмосферное давление - измеренное на уровне метеостанции атмосферное давление.
Tmin - Минимальная температура - минимум температуры воздуха на высоте 2 м над землей.
Tmax - Максимальная температура - максимум температуры воздуха на высоте 2 м над землей.
R - Количество осадков - Количество выпавших осадков за период времени, мм. При наведении курсора мыши на число - период времени, за который выпало указанное количество осадков.
R24 - Количество осадков - Количество выпавших осадков за 24 часа, мм.
S - Снежный покров - Высота снежного покрова, см. При наведении курсора мыши на число - состояние снежного покрова и степень покрытия местности в баллах.